Location: Kelshall
(52.0000°N, 0.0500°W)
Time: 12:18:54
(UTC+00:00)

Meteor 1-11 - Visible Passes

Search period start: 24 September 2021 00:00
Search period end: 04 October 2021 00:00
Orbit: 842 x 886 km, 81.2° (Epoch: 23 September)

Date Brightness Start Highest point End Pass type
(mag) Time Alt. Az. Time Alt. Az. Time Alt. Az.
24 Sep 5.3 20:53:50 10° N 20:57:57 31° NE 20:57:57 31° NE visible
24 Sep 5.7 22:36:56 10° NNW 22:40:14 33° NW 22:40:14 33° NW visible
25 Sep 5.3 20:45:44 10° N 20:49:54 31° NE 20:49:54 31° NE visible
25 Sep 5.6 22:28:49 10° NNW 22:32:11 33° NW 22:32:11 33° NW visible
26 Sep 5.3 20:37:38 10° N 20:41:51 31° NE 20:41:51 31° NE visible
26 Sep 5.6 22:20:43 10° NNW 22:24:08 34° NW 22:24:08 34° NW visible
27 Sep 5.2 20:29:31 10° N 20:33:49 31° NE 20:33:49 31° NE visible
27 Sep 5.6 22:12:36 10° NNW 22:16:06 35° NW 22:16:06 35° NW visible
28 Sep 5.2 20:21:25 10° N 20:25:48 31° NE 20:25:48 31° NE visible
28 Sep 5.5 22:04:29 10° NNW 22:08:06 36° NW 22:08:06 36° NW visible
29 Sep 5.2 20:13:19 10° N 20:17:48 31° NE 20:17:48 31° NE visible
29 Sep 5.5 21:56:23 10° NNW 22:00:05 37° NW 22:00:05 37° NW visible
30 Sep 5.1 20:05:12 10° N 20:09:49 31° ENE 20:09:49 31° ENE visible
30 Sep 5.4 21:48:16 10° NNW 21:52:06 39° NW 21:52:06 39° NW visible
01 Oct 5.1 19:57:06 10° N 20:01:51 31° ENE 20:01:51 31° ENE visible
01 Oct 5.3 21:40:09 10° NNW 21:44:08 40° NW 21:44:08 40° NW visible
02 Oct 5.1 19:48:59 10° N 19:53:53 31° ENE 19:53:53 31° ENE visible
02 Oct 5.2 21:32:02 10° NNW 21:36:11 42° NW 21:36:11 42° NW visible
03 Oct 5.0 19:40:53 10° N 19:45:51 31° ENE 19:45:57 31° ENE visible
03 Oct 5.1 21:23:56 10° NNW 21:28:15 44° WNW 21:28:15 44° WNW visible
